User: anonymous   Login
Location: Hohe Wand Kleine Kanzel
(47.8330°N, 16.0170°E)
Time: 00:17:46
(UTC+02:00)
Language:

Explorer 7 - Orbit

View from above orbital plane
View from above orbital plane
View from above satellite
View from above satellite

Ground track
Ground track

The orbit data is extracted from the following two-line orbital elements,

1 00022U 59009A   21209.40155999  .00000132  00000-0  32835-4 0  9994
2 00022  50.2851 356.6792 0138340  10.2838 350.0889 14.95633649531110
Epoch (UTC): 28 July 2021 09:38:14
Eccentricity: 0.0138340
inclination: 50.2851°
perigee height: 484 km
apogee height: 676 km
right ascension of ascending node: 356.6792°
argument of perigee: 10.2838°
revolutions per day: 14.95633649
mean anomaly at epoch: 350.0889°
orbit number at epoch: 53111

The dashed part of the orbit path shows where the satellite is in the earth's shadow,  

DLR